SCP
0 0 0 0 0 0 0 0 0 0 0 0 0 0 0 0 0 0 0 0 0 0 0 0 0 0 0 0 0 0 0 0 0 0 0 0 0 0
0 0 0 0 0 0 0 0 0 0 0 0 0 0 0 0 0 0 0 0 0 0 0 0 0 0 0 0 0 0 0 0 0 0 0 0 0 0
0 0 0 0 0 0 0 0 0 0 0 0 0 0 0 0 0 0 0 0 0 0 0 0 0 0 0 0 0 0 0 0 0 0 0 0 0 0
0 0 0 0 0 0 0 0 0 0 0 0 0 0 0 0 0 0 0 0 0 0 0 0 0 0 0 0 0 0 0 0 0 0 0 0 0 0
0 0 0 0 0 0 0 0 0 0 0 0 0 0 0 0 0 0 0 0 0 0 0 0 0 0 0 0 0 0 0 0 0 0 0 0 0 0
0 0 0 0 0 0 0 0 0 0 0 0 0 0 0 0 0 0 0 0 0 0 0 0 0 0 0 0 0 0 0 0 0 0 0 0 0 0
0 0 0 0 0 0 0 0 0 0 0 0 0 0 0 0 0 0 0 0 0 0 0 0 0 0 0 0 0 0 0 0 0 0 0 0 0 0
0 0 0 0 0 0 0 0 0 0 0 0 0 0 0 0 0 0 0 0 0 0 0 0 0 0 0 0 0 0 0 0 0 0 0 0 0 0
0 0 0 0 0 0 0 0 0 0 0 0 0 0 0 0 0 0 0 0 0 0 0 0 0 0 0 0 0 0 0 0 0 0 0 0 0 0
0 0 0 0 0 0 0 0 0 0 0 0 0 0 0 0 0 0 0 0 0 0 0 0 0 0 0 0 0 0 0 0 0 0 0 0 0 0
0 0 0 0 0 0 0 0 0 0 0 0 0 0 0 0 0 0 0 0 0 0 0 0 0 0 0 0 0 0 0 0 0 0 0 0 0 0
0 0 0 0 0 0 0 0 0 0 0 0 0 0 0 0 0 0 0 0 0 0 0 0 0 0 0 0 0 0 0 0 0 0 0 0 0 0
0 0 0 0 0 0 0 0 0 0 0 0 0 0 0 0 0 0 0 0 0 0 0 0 0 0 0 0 0 0 0 0 0 0 0 0 0 0
0 0 0 0 0 0 0 0 0 0 0 0 0 0 0 0 0 0 0 0 0 0 0 0 0 0 0 0 0 0 0 0 0 0 0 0 0 0
0 0 0 0 0 0 0 0 0 0 0 0 0 0 0 0 0 0 0 0 0 0 0 0 0 0 0 0 0 0 0 0 0 0 0 0 0 0
0 0 0 0 0 0 0 0 0 0 0 0 0 0 0 0 0 0 0 0 0 0 0 0 0 0 0 0 0 0 0 0 0 0 0 0 0 0
0 0 0 0 0 0 0 0 0 0 0 0 0 0 0 0 0 0 0 0 0 0 0 0 0 0 0 0 0 0 0 0 0 0 0 0 0 0
0 0 0 0 0 0 0 0 0 0 0 0 0 0 0 0 0 0 0 0 0 0 0 0 0 0 0 0 0 0 0 0 0 0 0 0 0 0
0 0 0 0 0 0 0 0 0 0 0 0 0 0 0 0 0 0 0 0 0 0 0 0 0 0 0 0 0 0 0 0 0 0 0 0 0 0
0 0 0 0 0 0 0 0 0 0 0 0 0 0 0 0 0 0 0 0 0 0 0 0 0 0 0 0 0 0 0 0 0 0 0 0 0 0
0 0 0 0 0 0 0 0 0 0 0 0 0 0 0 0 0 0 0 0 0 0 0 0 0 0 0 0 0 0 0 0 0 0 0 0 0 0
0 0 0 0 0 0 0 0 0 0 0 0 0 0 0 0 0 0 0 0 0 0 0 0 0 0 0 0 0 0 0 0 0 0 0 0 0 0
0 0 0 0 0 0 0 0 0 0 0 0 0 0 0 0 0 0 0 0 0 0 0 0 0 0 0 0 0 0 0 0 0 0 0 0 0 0
Wind_Speed
5 5 4 4 3 3 3 3 3 4 4 3 2 2 2 2 4 5 6 12 17 18 19 20 21 21 21 21 21 20 20 19 18 18 18 18 18 19
5 5 5 4 3 3 3 3 3 4 5 3 3 3 3 4 4 4 6 9 14 16 18 19 20 21 21 21 21 20 20 19 19 18 18 17 17 17
6 6 6 5 4 4 3 3 4 4 5 4 3 3 3 4 3 3 4 5 7 14 16 18 19 20 20 20 20 20 19 19 19 18 18 18 17 17
6 6 6 6 5 4 4 4 4 4 5 5 4 4 5 4 4 4 5 6 6 11 16 17 18 18 19 19 19 19 19 18 18 18 18 18 17 17
6 6 6 6 5 4 5 5 4 5 4 5 5 4 4 3 3 4 5 4 6 7 12 15 16 17 18 18 18 18 17 18 18 17 17 17 16 16
6 6 6 6 5 5 5 5 5 5 5 5 5 4 4 3 2 3 3 3 4 5 5 7 11 14 15 16 17 17 17 16 16 16 16 15 15 15
6 6 7 7 7 6 6 4 4 4 4 4 4 4 3 2 2 2 3 2 2 3 3 4 6 6 8 12 14 16 16 16 16 15 15 15 14 13
7 7 7 8 9 10 10 8 7 6 5 4 4 4 4 3 2 2 2 2 2 3 4 4 5 6 6 6 10 14 15 16 15 15 14 14 13 13
8 7 8 8 5 5 7 10 10 11 9 6 6 6 5 4 3 3 3 3 3 2 3 3 4 4 4 5 11 12 14 15 15 14 14 13 13 12
8 8 7 6 6 5 5 5 5 6 8 8 6 6 5 4 4 4 4 3 2 2 3 3 3 3 3 3 9 11 12 13 13 14 14 13 13 12
7 7 6 4 4 5 5 5 5 5 6 7 7 6 6 6 5 3 3 3 2 2 2 2 3 3 2 2 4 8 10 11 12 13 13 13 13 11
5 4 4 3 3 4 4 5 5 4 4 4 4 5 5 6 7 6 4 4 3 2 3 3 3 3 2 2 3 4 5 7 10 11 12 13 13 8
6 4 2 2 2 4 5 5 5 4 4 4 4 4 4 4 5 5 5 4 4 3 3 3 3 3 3 3 3 4 5 4 5 6 10 12 12 9
5 4 2 2 4 5 5 6 6 5 4 4 4 4 4 4 4 4 5 4 3 3 4 4 3 3 4 3 3 4 4 5 5 6 7 9 8 8
5 7 7 7 7 6 9 9 7 5 5 5 5 4 3 3 3 3 3 3 2 3 4 4 4 3 3 3 4 5 4 4 5 6 7 7 7 7
5 6 8 9 8 8 6 6 6 6 5 5 4 3 2 2 3 3 3 3 3 2 2 3 4 4 3 3 4 5 5 5 6 6 6 6 6 7
6 5 5 4 4 4 4 5 5 5 5 4 4 3 3 3 3 3 3 3 3 3 3 3 3 4 3 3 4 5 5 5 6 6 6 6 5 6
5 5 5 4 4 3 3 3 3 3 3 3 3 3 3 3 3 3 3 3 3 3 3 3 4 3 2 0 2 5 4 4 5 6 5 6 5 4
4 5 5 4 3 3 3 3 3 3 3 3 3 3 3 3 3 3 4 4 4 3 3 3 4 5 5 4 3 5 5 5 5 5 5 4 5 5
4 4 4 3 4 3 3 3 3 2 2 3 3 3 3 3 3 3 4 5 4 4 4 4 4 5 5 5 3 4 7 6 5 6 5 3 3 4
3 3 3 3 3 3 3 3 3 2 3 3 3 3 3 3 3 3 4 5 5 4 5 5 5 6 3 2 3 3 4 5 4 4 5 5 5 5
4 3 3 3 3 3 3 3 3 3 3 3 3 3 3 3 3 4 3 4 4 4 5 4 5 4 4 4 5 5 5 4 4 7 6 3 4 6
3 3 3 2 2 2 2 3 4 3 2 2 2 2 2 2 2 3 3 3 4 4 4 4 4 4 4 5 5 5 7 7 5 4 3 6 5 6
Wind_Direction
279 275 260 265 262 258 257 253 254 268 270 268 260 251 249 225 205 215 217 205 204 205 207 207 205 202 201 202 204 205 207 208 209 211 212 213 215 218
270 269 271 268 271 266 257 252 245 254 266 275 277 282 279 265 216 218 228 216 208 207 208 209 208 205 202 202 202 203 204 206 207 208 210 211 212 214
279 276 271 265 258 269 268 257 249 246 258 267 270 277 270 274 268 241 229 219 213 210 210 210 207 204 202 201 201 202 203 206 207 208 209 211 213 214
282 279 278 275 261 255 261 265 259 252 253 263 266 270 265 260 260 252 238 229 218 211 207 208 206 204 202 201 201 202 203 205 207 208 209 210 211 213
290 285 279 274 268 256 255 257 261 261 252 256 260 257 259 254 258 251 236 230 233 216 203 204 204 202 201 200 199 200 201 203 205 206 208 209 210 211
289 283 276 269 265 259 254 247 252 258 259 260 258 256 256 249 240 247 248 226 228 223 204 197 196 198 199 197 196 195 196 198 200 201 204 206 206 207
294 286 280 272 262 256 260 253 257 256 258 260 259 257 256 251 234 240 250 240 221 204 187 186 178 188 197 196 196 194 192 194 195 196 199 201 202 203
293 290 284 266 254 242 238 239 239 243 252 260 264 258 256 255 255 246 246 240 236 194 183 192 180 185 187 190 192 190 190 191 192 193 195 196 196 197
283 281 282 283 282 261 237 231 234 237 234 244 256 257 256 248 244 252 245 236 242 208 179 193 181 177 173 180 175 180 185 187 189 190 191 191 191 193
275 270 269 276 280 279 273 258 246 240 232 232 240 246 250 249 235 235 241 247 242 218 183 179 171 166 142 141 161 169 176 179 182 184 183 183 184 186
285 281 277 270 271 268 265 264 263 260 255 244 231 228 228 239 239 233 228 216 219 204 189 171 157 144 134 129 142 157 165 171 175 177 177 176 174 172
296 286 281 274 269 266 264 265 262 265 272 258 247 238 230 231 231 223 220 217 203 203 182 165 154 142 139 127 139 152 152 163 171 173 173 172 169 169
305 307 316 324 272 261 259 263 264 275 277 263 248 242 234 228 222 215 211 212 207 211 179 159 157 161 148 141 148 160 158 158 164 171 176 176 178 179
300 303 303 262 275 272 262 258 259 267 262 261 254 243 232 223 217 207 204 207 208 202 181 163 161 175 157 148 153 158 162 168 167 166 169 173 187 195
290 296 286 265 267 263 253 255 251 245 245 249 249 248 235 216 203 187 187 181 189 202 187 175 166 169 171 164 156 158 160 172 177 169 166 171 179 177
296 292 276 260 251 259 261 241 230 235 238 246 247 244 235 220 206 184 183 176 182 201 197 176 168 168 180 175 160 166 165 165 175 175 168 172 178 183
320 295 282 275 256 244 244 235 230 231 232 236 243 245 234 228 218 193 185 180 191 194 189 180 174 162 163 169 175 174 171 170 171 172 169 174 182 185
302 286 287 286 281 272 268 264 253 249 250 245 245 244 239 228 215 198 188 188 191 195 188 180 167 152 149 211 192 178 175 177 170 170 172 173 178 178
267 275 279 283 285 282 276 271 267 255 247 243 244 244 242 237 218 204 197 195 199 196 189 181 181 177 183 198 206 197 181 172 167 174 183 175 173 172
255 272 279 284 290 286 278 274 273 269 259 254 245 237 237 236 226 215 207 198 199 199 192 188 193 197 198 192 180 184 186 172 171 181 180 150 118 115
285 280 276 277 285 289 284 280 274 271 266 261 256 243 234 229 229 221 213 203 200 197 195 197 204 198 190 161 168 168 163 169 163 169 168 158 155 161
289 289 284 284 286 287 287 288 282 270 262 257 256 252 248 245 237 233 219 202 204 206 201 192 186 179 187 196 194 173 157 140 104 90 88 105 162 176
292 292 289 281 275 268 274 283 284 277 268 266 269 262 260 261 262 246 233 216 208 205 194 186 184 188 200 199 190 176 164 159 154 139 79 36 75 101